Home > Weather > Antioch > Past weeks

Flag for USA Past Weather in Antioch, California, USA — Yesterday and Last 2 Weeks

Now
63 °F

Clear.


Feels Like: 63 °F
Forecast: 66 / 101 °F
Wind: 6 mph from North

Location: Buchanan Field

Current Time: Jul 27, 2016 at 4:46:36 AM

Latest Report: Jul 27, 2016 at 3:53 AM


Visibility: 10 mi

Pressure: 29.80 "Hg

Humidity: 73%

Dew Point: 54 °F

Location of AntiochLocation

Past Weather in Antioch — Graph

°F

Antioch Temperature Yesterday

Maximum temperature yesterday: 103 °F (at 3:53 PM)
Minimum temperature yesterday: 60 °F (at 5:53 AM)
Average temperature yesterday: 80 °F

High & Low Weather Summary for the Past Weeks

 TemperatureHumidityPressure
High103 °F (Jul 26, 3:53 PM)81% (Jul 15, 5:53 AM)30.06 "Hg (Jul 15, 5:53 AM)
Low56 °F (Jul 19, 5:53 AM)7% (Jul 14, 3:53 PM)29.74 "Hg (Jul 26, 5:53 PM)
Average73 °F49%29.89 "Hg
* Reported Jul 12 2:53 AM — Jul 27 2:53 AM, Antioch, Weather by CustomWeather, © 2016

Note: Actual official high and low records may vary slightly from our data, if they occured in-between our weather recording intervals... More about our weather records

Advertising

Antioch Weather History for the Previous 24 Hours

Scroll right to see more
 ConditionsComfort  
Time TempWeatherWind HumidityBarometerVisibility
2:53 AM
Wed, Jul 27
65 °FClear.6 mph68%29.79 "Hg10 mi
1:53 AM68 °FClear.5 mph63%29.79 "Hg10 mi
12:53 AM71 °FClear.3 mph51%29.79 "Hg10 mi
11:53 PM
Tue, Jul 26
74 °FClear.No wind45%29.79 "Hg10 mi
10:53 PM77 °FClear.3 mph37%29.79 "Hg10 mi
9:53 PM78 °FClear.5 mph36%29.78 "Hg10 mi
8:53 PM82 °FSunny.7 mph33%29.77 "Hg10 mi
7:53 PM92 °FSunny.7 mph23%29.75 "Hg10 mi
6:53 PM97 °FSunny.14 mph19%29.74 "Hg10 mi
5:53 PM102 °FSunny.12 mph11%29.74 "Hg10 mi
4:53 PM102 °FSunny.14 mph13%29.75 "Hg10 mi
3:53 PM103 °FSunny.8 mph11%29.77 "Hg10 mi
2:53 PM100 °FSunny.7 mph12%29.79 "Hg10 mi
1:53 PM96 °FSunny.9 mph19%29.81 "Hg10 mi
12:53 PM93 °FSunny.6 mph24%29.83 "Hg10 mi
11:53 AM90 °FSunny.6 mph26%29.85 "Hg10 mi
10:53 AM84 °FSunny.3 mph31%29.86 "Hg10 mi
9:53 AM77 °FSunny.No wind44%29.87 "Hg10 mi
8:53 AM71 °FSunny.3 mph55%29.88 "Hg10 mi
7:53 AM66 °FSunny.No wind63%29.87 "Hg10 mi
6:53 AM61 °FClear.No wind75%29.86 "Hg10 mi
5:53 AM60 °FClear.3 mph72%29.84 "Hg10 mi
4:53 AM61 °FClear.No wind72%29.84 "Hg10 mi
Weather by CustomWeather, © 2016

See weather overviewHow to use our weather pages